Location: Chrząstowo
(52.0654°N, 17.1290°E)
Time: 20:37:46
(UTC+01:00)

Envisat - Pass Details

Date: 16 December 2019
Orbit: 764 x 766 km, 98.1° (Epoch: 22 January)

Event Time Altitude Azimuth Distance (km) Brightness Sun altitude
Rises 05:15:18 0° 28° (NNE) 3,246 6.5 -22.9°
Reaches altitude 10° 05:18:41 10° 51° (NE) 2,313 6.0 -22.4°
Maximum altitude 05:21:32 15° 86° (E) 1,982 6.1 -22.0°
Drops below altitude 10° 05:24:24 10° 120° (ESE) 2,303 6.5 -21.5°
Sets 05:27:44 0° 144° (SE) 3,222 7.0 -21.0°
